This is the latest recevied weather packets stored in our database for station/object KR4KUV. If no packets are shown the sender has not sent any weather packets the latest 10 day(s).
| Time | Temp. | Humidity | Pressure | Rain* | Wind** | Luminosity | Snow |
|---|---|---|---|---|---|---|---|
| 1788025761 | 28.89° C | 70% | 1024.3 hPa | 0 mm | - | 667 W/m² | - |
| 1788025456 | 28.89° C | 71% | 1023.9 hPa | 0 mm | - | 647 W/m² | - |
| 1788025152 | 28.89° C | 74% | 1024.2 hPa | 0 mm | - | 664 W/m² | - |
| 1788024852 | 28.89° C | 73% | 1023.8 hPa | 0 mm | - | 675 W/m² | - |
| 1788024548 | 28.89° C | 72% | 1023.8 hPa | 0 mm | - | 694 W/m² | - |
| 1788024247 | 28.89° C | 79% | 1023.9 hPa | 0 mm | - | 714 W/m² | - |
| 1788023943 | 28.33° C | 75% | 1024.2 hPa | 0 mm | - | 681 W/m² | - |
| 1788023638 | 28.33° C | 73% | 1024.2 hPa | 0 mm | - | 678 W/m² | - |
| 1788023334 | 28.33° C | 76% | 1024.2 hPa | 0 mm | - | 684 W/m² | - |
| 1788023034 | 27.78° C | 75% | 1024 hPa | 0 mm | - | 673 W/m² | - |
| 1788022731 | 28.33° C | 77% | 1024.2 hPa | 0 mm | - | 613 W/m² | - |
| 1788022430 | 27.78° C | 77% | 1024 hPa | 0 mm | - | 672 W/m² | - |
| 1788022125 | 27.78° C | 77% | 1024 hPa | 0 mm | - | 649 W/m² | - |
| 1788021819 | 27.22° C | 78% | 1024 hPa | 0 mm | - | 647 W/m² | - |
| 1788021517 | 27.22° C | 78% | 1024 hPa | 0 mm | - | 654 W/m² | - |
| 1788021211 | 27.78° C | 77% | 1024 hPa | 0 mm | - | 631 W/m² | - |
| 1788020907 | 27.78° C | 79% | 1024.4 hPa | 0 mm | - | 561 W/m² | - |
| 1788020601 | 27.22° C | 79% | 1024.3 hPa | 0 mm | - | 628 W/m² | - |
| 1788020298 | 27.22° C | 80% | 1023.8 hPa | 0 mm | - | 615 W/m² | - |
| 1788019993 | 26.67° C | 80% | 1023.9 hPa | 0 mm | - | 610 W/m² | - |
| 1788019693 | 26.11° C | 83% | 1023.9 hPa | 0 mm | - | 604 W/m² | - |
| 1788019387 | 26.11° C | 83% | 1024.2 hPa | 0 mm | - | 627 W/m² | - |
| 1788019085 | 26.11° C | 83% | 1024.2 hPa | 0 mm | - | 596 W/m² | - |
| 1788018785 | 25.56° C | 85% | 1024 hPa | 0 mm | - | 575 W/m² | - |
| 1788018480 | 26.11° C | 84% | 1024.2 hPa | 0 mm | - | 528 W/m² | - |
* Rain latest hour (hover to see other rain measurements)
** Current wind speed in m/s (hover to see current wind gust speed)